Regional Weather Roundup
Issued by NWS

Home | Current Version | Previous Version | Text Only | Print | Product List | Glossary On
Versions: 1 2 3 4 5 6 7 8 9 10 11 12 13 14 15 16 17 18 19 20 21 22 23 24 25 26 27 28 29 30 31 32 33 34 35 36 37 38 39 40 41 42 43 44 45 46 47 48 49 50
000
ASUS43 KOAX 181702
RWRNE

WEATHER ROUNDUP FOR NEBRASKA
NATIONAL WEATHER SERVICE OMAHA NE
1100 AM CST THU JAN 18 2018

NOTES: SATELLITE DATA IS BEING USED TO AUGMENT CLOUD COVER ABOVE
       12000 FEET.
       "FAIR" INDICATES FEW OR NO CLOUDS BELOW 12,000 FEET WITH NO
       SIGNIFICANT WEATHER AND/OR OBSTRUCTIONS TO VISIBILITY.


NEZ001>004-019>022-054>056-181800-
NEBRASKA PANHANDLE

CITY           SKY/WX    TMP DP  RH WIND       PRES   REMARKS
SCOTTSBLUFF    MOSUNNY   39  26  59 NW9       30.03R WCI  33
ALLIANCE       PTSUNNY   32  25  75 W7        30.00S WCI  26
CHADRON        CLOUDY    38  26  62 W6        29.99R WCI  33
GORDON         FAIR      43  25  49 W10       29.96R
KIMBALL        PTSUNNY   46  22  38 W9        30.06S
SIDNEY         PTSUNNY   46  24  42 W13       30.04F
$$

NEZ057>060-069>072-079>082-181800-
SOUTHWEST NEBRASKA

CITY           SKY/WX    TMP DP  RH WIND       PRES   REMARKS
NORTH PLATTE   CLOUDY    35  25  66 W8        30.03F WCI  29
IMPERIAL       CLOUDY    38  24  57 W8        30.06F WCI  32
LEXINGTON      CLOUDY    32  24  72 NW3       30.05R
MCCOOK         PTSUNNY   33  23  66 W10       30.08R WCI  25
OGALLALA       CLOUDY    33  26  77 W13       30.04R WCI  24
$$

NEZ005>010-023>029-035>040-094-181800-
NORTH CENTRAL NEBRASKA

CITY           SKY/WX    TMP DP  RH WIND       PRES   REMARKS
VALENTINE      CLOUDY    35  27  72 SW9       29.93F WCI  28
AINSWORTH      CLOUDY    39  28  65 W7        29.92F WCI  34
BROKEN BOW     CLOUDY    36  24  62 S5        29.99S WCI  32
O`NEILL        CLOUDY    37  25  61 SW7       29.95F WCI  32
ORD            CLOUDY    31  23  72 CALM      29.99S
THEDFORD       CLOUDY    42  28  59 W7        29.97F
$$

NEZ041-046>049-061>064-073>077-083>087-181800-
SOUTH CENTRAL NEBRASKA

CITY           SKY/WX    TMP DP  RH WIND       PRES   REMARKS
GRAND ISLAND   CLOUDY    34  23  64 SW14      30.03S WCI  25
AURORA         CLOUDY    31  21  66 SW14      30.02F WCI  21
HASTINGS       CLOUDY    32  21  64 SW9       30.05F WCI  24
HEBRON         CLOUDY    26  15  62 SW7       30.12S WCI  19
HOLDREGE       CLOUDY    35  25  67 W13       30.05S WCI  26
KEARNEY        CLOUDY    31  23  72 SW9       30.05R WCI  23
YORK           CLOUDY    32  23  69 SW15      30.04F WCI  22
$$

NEZ011>018-030>034-042>045-181800-
NORTHEAST NEBRASKA

CITY           SKY/WX    TMP DP  RH WIND       PRES   REMARKS
NORFOLK        CLOUDY    32  21  64 S10       29.98S WCI  24
ALBION         CLOUDY    35  22  61 W8        29.99S WCI  28
BLAIR          CLOUDY    29  16  59 S10       30.08R WCI  20
COLUMBUS       SUNNY     33  20  58 S8        30.04F WCI  26
FREMONT        SUNNY     31  17  56 S9        30.06F WCI  23
TEKAMAH        SUNNY     28  16  60 S14       30.06F WCI  17
WAYNE          SUNNY     35  22  58 SW13      29.99F WCI  26
$$

NEZ050>053-065>068-078-088>093-181800-
SOUTHEAST NEBRASKA

CITY           SKY/WX    TMP DP  RH WIND       PRES   REMARKS
LINCOLN        SUNNY     29  13  51 SW13      30.11R WCI  19
OMAHA EPPLEY   CLOUDY    26  13  57 S8        30.10S WCI  18
BEATRICE       CLOUDY    27  15  60 SW13      30.11S WCI  16
FALLS CITY     CLOUDY    29  13  51 VRB5      30.15R WCI  24
NEBRASKA CITY  CLOUDY    27  15  61 SW9       30.12R WCI  18
PLATTSMOUTH    CLOUDY    26  15  61 S10       30.10S WCI  16
$$

NEZ044-045-051>053-067-181800-
OMAHA AREA

CITY           SKY/WX    TMP DP  RH WIND       PRES   REMARKS
OMAHA EPPLEY   CLOUDY    26  13  57 S8        30.10S WCI  18
BLAIR          CLOUDY    29  16  59 S10       30.08R WCI  20
FREMONT        SUNNY     31  17  56 S9        30.06F WCI  23
MILLARD        CLOUDY    30  14  51 SW6       30.10S WCI  24
OFFUTT AFB     CLOUDY    27  13  55 S6        30.10S WCI  20
PLATTSMOUTH    CLOUDY    26  15  61 S10       30.10S WCI  16
WAHOO          FAIR      31  15  51 S7        30.09R WCI  24
$$




USA.gov is the U.S. government's official web portal to all federal, state and local government web resources and services.